FLOCK 4V-14 (46286 NORAD) Tracking and Keplerian Element Data

This shows tracking and keplerian element data for the satellite.

Feedback or suggestion? Click here.




ElementValue
Catalog46286
NameFLOCK 4V-14
Epoch Orbit1347
Epoch Day336.54213409
Epoch Year2020
RAAN47.9532
Inclination97.5108
Eccentricity0.0004636
Argument of Perigee53.4447
Mean Anonmoly306.7208
Mean Motion15.10010349
Decay Rate1.484E-05
L11 46286U 20061Q 20336.54213409 .00001484 00000-0 95180-4 0 9991
L22 46286 97.5108 47.9532 0004636 53.4447 306.7208 15.10010349 13479

Live tracking and technical data element details for FLOCK 4V-14 (NORAD 46286). FLOCK 4V-14 can be tracked NOW for your location showing map with azimuth and elevation plus other details from your city location.

Track the satellite on the map from your city or location and see movement details for azimuth, elevation, latitude, longitude, range, height, and movement on the map or in text.







IsCatalogInMostPopularTable: catalog: 46286, numindb: 23
Update: records affected: 1



GetName: 46286 FLOCK 4V-14

Hit Count: updated at: Thu, 03 Dec 2020 08:00:23 GMT